Weather History for KLIC - November, 2012

Change the Weather History Date:

Sunday, November 18, 2012

  Actual Average Record
Temperature  
Mean Temperature 42 °F -  
Max Temperature 63 °F - 77 °F (2013)
Min Temperature 21 °F - 3 °F (2014)
Degree Days  
Heating Degree Days 23    
Month to date heating degree days 467  
Cooling Degree Days 0    
Month to date cooling degree days 0  
Moisture  
Dew Point 23 °F    
Average Humidity 60    
Maximum Humidity 92    
Minimum Humidity 20    
Precipitation  
Precipitation 0.00 in - 0.10 in (2004)
Month to date precipitation 0.22  
Year to date precipitation 9.51  
Sea Level Pressure  
Sea Level Pressure 30.01 in    
Wind  
Wind Speed 5 mph (NW)    
Max Wind Speed 14 mph    
Max Gust Speed 17 mph    
Visibility 10 miles    
Events      
T = Trace of Precipitation, MM = Missing Value Source: NWS Daily Summary

Daily Weather History Graph

Daily Weather History Graph

Search for Another Location

Airport or City:

Trip Planner

Search our weather history database for the weather conditions in past years. The results will help you decide how hot, cold, wet, or windy it might be!

Date:

Astronomy

Nov. 18, 2012 Rise Set
Actual Time 6:42 AM MST 4:37 PM MST
Civil Twilight 6:13 AM MST 5:06 PM MST
Nautical Twilight 5:40 AM MST 5:38 PM MST
Astronomical Twilight 5:08 AM MST 6:10 PM MST
Moon 11:10 AM MST (11/18) 9:59 PM MST (11/18)
Length of Visible Light 10h 53m
Length of Day
9h 55m
Waxing Crescent, 31% of the Moon is Illuminated
Nov 18
Waxing Crescent
Nov 20
First Quarter
Nov 28
Full
Dec 6
Last Quarter
Dec 13
New

Hourly Weather History & Observations

Time (MST) Temp. Windchill Dew Point Humidity Pressure Visibility Wind Dir Wind Speed Gust Speed Precip Events Conditions
12:55 AM 23.0 °F 18.4 °F 21.0 °F 92% 29.98 in 10.0 mi NNW 3.5 mph - N/A   Clear
1:55 AM 27.0 °F - 21.9 °F 81% 29.97 in 10.0 mi Calm Calm - N/A   Clear
2:55 AM 24.1 °F 14.4 °F 21.0 °F 88% 29.95 in 10.0 mi North 9.2 mph - N/A   Clear
3:55 AM 28.9 °F 22.8 °F 23.0 °F 78% 29.94 in 10.0 mi West 5.8 mph - N/A   Clear
4:55 AM 30.0 °F 24.1 °F 23.0 °F 75% 29.98 in 10.0 mi NNW 5.8 mph - N/A   Clear
5:55 AM 30.0 °F 25.2 °F 23.0 °F 75% 30.00 in 10.0 mi NNW 4.6 mph - N/A   Clear
6:55 AM 28.9 °F 21.9 °F 23.0 °F 78% 30.02 in 10.0 mi WNW 6.9 mph - N/A   Clear
7:55 AM 36.0 °F 29.6 °F 25.0 °F 64% 30.01 in 10.0 mi WNW 8.1 mph - N/A   Clear
8:55 AM 41.0 °F 34.7 °F 27.0 °F 57% 30.04 in 10.0 mi WNW 10.4 mph - N/A   Clear
9:55 AM 44.1 °F 41.5 °F 28.9 °F 55% 30.04 in 10.0 mi NW 4.6 mph - N/A   Clear
10:55 AM 59.0 °F - 24.1 °F 26% 29.97 in 10.0 mi NW 8.1 mph - N/A   Clear
11:55 AM 61.0 °F - 21.9 °F 22% 29.94 in 10.0 mi WNW 6.9 mph - N/A   Clear
12:55 PM 62.1 °F - 21.9 °F 21% 29.92 in 10.0 mi WNW 5.8 mph - N/A   Clear
1:55 PM 62.1 °F - 21.9 °F 21% 29.91 in 10.0 mi North 8.1 mph 17.3 mph N/A   Clear
2:55 PM 62.1 °F - 19.9 °F 20% 29.94 in 10.0 mi North 10.4 mph - N/A   Clear
3:55 PM 59.0 °F - 21.9 °F 24% 29.95 in 10.0 mi NNE 8.1 mph - N/A   Clear
4:55 PM 44.1 °F - 23.0 °F 43% 30.01 in 10.0 mi Calm Calm - N/A   Clear
5:55 PM 35.1 °F 27.4 °F 24.1 °F 64% 30.08 in 10.0 mi North 10.4 mph - N/A   Clear
6:55 PM 30.9 °F 25.2 °F 24.1 °F 76% 30.12 in 10.0 mi NNW 5.8 mph - N/A   Clear
7:55 PM 32.0 °F 25.6 °F 24.1 °F 73% 30.10 in 10.0 mi North 6.9 mph - N/A   Clear
8:55 PM 27.0 °F - 21.9 °F 81% 30.12 in 10.0 mi Calm Calm - N/A   Clear
9:55 PM 30.0 °F - 23.0 °F 75% 30.09 in 10.0 mi Calm Calm - N/A   Clear
10:55 PM 33.1 °F 28.7 °F 24.1 °F 70% 30.04 in 10.0 mi WNW 4.6 mph - N/A   Clear
11:55 PM 30.0 °F 26.5 °F 21.9 °F 72% 30.05 in 10.0 mi NW 3.5 mph - N/A   Clear